WJ4X-13 Weather Reports


time (UTC)temp
C
wind
direction
speed
KPH
gust
KPH
rain 1hr
cm
rain 24hr
cm
rain mn
cm
humidity
%
barometer
mb
20260505184535 26 360 0.0 0.0 0.00 0.00 0.00 49 1016.7
20260505183033 26 360 0.0 0.0 0.00 0.00 0.00 49 1016.9
20260505181536 25 360 0.0 0.0 0.00 0.00 0.00 46 1017.2
20260505180039 25 360 0.0 0.0 0.00 0.00 0.00 47 1017.5
20260505174532 25 360 0.0 0.0 0.00 0.00 0.00 46 1017.7
20260505173029 25 360 0.0 0.0 0.00 0.00 0.00 46 1018.0
20260505171525 25 360 0.0 0.0 0.00 0.00 0.00 43 1017.7
20260505170026 25 360 0.0 0.0 0.00 0.00 0.00 52 1017.6
20260505164521 25 360 0.0 0.0 0.00 0.00 0.00 45 1017.8
20260505163023 24 360 0.0 0.0 0.00 0.00 0.00 49 1018.1
20260505161519 23 360 0.0 0.0 0.00 0.00 0.00 51 1018.3
20260505153012 22 360 0.0 0.0 0.00 0.00 0.00 66 1018.4
20260505151513 22 360 0.0 0.0 0.00 0.00 0.00 64 1018.7
20260505124542 14 360 0.0 0.0 0.00 0.00 0.00 94 1018.1
20260505123030 12 360 0.0 0.0 0.00 0.00 0.00 96 1018.2
20260505121541 11 360 0.0 0.0 0.00 0.00 0.00 96 1018.2
20260505120026 11 360 0.0 0.0 0.00 0.00 0.00 96 1017.9
20260505114523 10 360 0.0 0.0 0.00 0.00 0.00 96 1017.7
20260505113023 10 360 0.0 0.0 0.00 0.00 0.00 97 1017.6
20260505111531 8 360 0.0 0.0 0.00 0.00 0.00 97 1017.6
20260505101516 8 360 0.0 0.0 0.00 0.00 0.00 96 1017.4
20260505100026 8 360 0.0 0.0 0.00 0.00 0.00 96 1017.4
20260505094515 8 360 0.0 0.0 0.00 0.00 0.00 95 1017.5
20260505093024 9 360 0.0 0.0 0.00 0.00 0.00 96 1017.3
20260505091516 9 360 0.0 0.0 0.00 0.00 0.00 96 1017.2
20260505090010 8 360 0.0 0.0 0.00 0.00 0.00 94 1017.1
20260505084510 8 360 0.0 0.0 0.00 0.00 0.00 95 1017.2
20260505083008 9 360 0.0 0.0 0.00 0.00 0.00 94 1017.1
20260505081512 9 360 0.0 0.0 0.00 0.00 0.00 94 1017.1
20260505080007 9 360 0.0 0.0 0.00 0.00 0.00 94 1017.1
20260505074507 9 360 0.0 0.0 0.00 0.00 0.00 93 1017.1
20260505073005 9 360 0.0 0.0 0.00 0.00 0.00 93 1017.0
20260505071504 9 360 0.0 0.0 0.00 0.00 0.00 93 1016.9
20260505070002 10 360 0.0 0.0 0.00 0.00 0.00 92 1016.9
20260505064610 10 360 0.0 0.0 0.00 0.00 0.00 92 1016.9
20260505063059 10 360 0.0 0.0 0.00 0.00 0.00 91 1016.9
20260505061557 10 360 0.0 0.0 0.00 0.00 0.00 92 1016.9
20260505060057 10 360 0.0 0.0 0.00 0.00 0.00 91 1016.9
20260505054619 10 360 0.0 0.0 0.00 0.00 0.00 91 1016.9
20260505053054 10 360 0.0 0.0 0.00 0.00 0.00 91 1017.0
20260505051552 10 360 0.0 0.0 0.00 0.00 0.00 90 1017.0
20260505041549 11 360 0.0 0.0 0.00 0.00 0.00 87 1017.0
20260505040043 12 360 0.0 0.0 0.00 0.00 0.00 86 1017.1
20260505034538 12 360 0.0 0.0 0.00 0.00 0.00 83 1017.2
20260505033037 12 360 0.0 0.0 0.00 0.00 0.00 82 1017.3
20260505031541 13 360 0.0 0.0 0.00 0.00 0.00 81 1017.2
20260505030053 13 360 0.0 0.0 0.00 0.00 0.00 79 1017.1
20260505024536 13 360 0.0 0.0 0.00 0.00 0.00 79 1017.1
20260505023035 14 360 0.0 0.0 0.00 0.00 0.00 78 1017.0
20260505021542 14 360 0.0 0.0 0.00 0.00 0.00 79 1017.0
20260505020048 15 360 0.0 0.0 0.00 0.00 0.00 76 1017.0
20260505014532 15 360 0.0 0.0 0.00 0.00 0.00 75 1016.9
20260505013031 16 360 0.0 0.0 0.00 0.00 0.00 75 1016.6
20260505011533 16 360 0.0 0.0 0.00 0.00 0.00 72 1016.6
20260505010037 17 360 0.0 0.0 0.00 0.00 0.00 68 1016.4
20260505004531 17 360 0.0 0.0 0.00 0.00 0.00 64 1016.3
20260505003031 18 360 0.0 0.0 0.00 0.00 0.00 63 1016.2
20260505001529 19 360 0.0 0.0 0.00 0.00 0.00 60 1016.0
20260505000031 20 360 0.0 0.0 0.00 0.00 0.00 54 1015.9
20260504234528 21 360 0.0 0.0 0.00 0.00 0.00 55 1015.7
20260504233027 21 360 0.0 0.0 0.00 0.00 0.00 54 1015.6
20260504231532 21 360 0.0 0.0 0.00 0.00 0.00 53 1015.5
20260504230026 22 360 0.0 0.0 0.00 0.00 0.00 50 1015.6
20260504224530 22 360 0.0 0.0 0.00 0.00 0.00 46 1015.6
20260504223025 23 360 0.0 0.0 0.00 0.00 0.00 50 1015.8
20260504221525 24 360 0.0 0.0 0.00 0.00 0.00 46 1015.8
20260504220022 24 360 0.0 0.0 0.00 0.00 0.00 45 1015.8
20260504214534 24 360 0.0 0.0 0.00 0.00 0.00 51 1015.8
20260504213023 24 360 0.0 0.0 0.00 0.00 0.00 47 1015.9
20260504211521 25 360 0.0 0.0 0.00 0.00 0.00 44 1015.8
20260504210020 25 360 0.0 0.0 0.00 0.00 0.00 44 1015.8
20260504204515 25 360 0.0 0.0 0.00 0.00 0.00 38 1016.0
20260504203018 25 360 0.0 0.0 0.00 0.00 0.00 39 1016.0
20260504201512 25 360 0.0 0.0 0.00 0.00 0.00 44 1016.2
20260504200015 25 360 0.0 0.0 0.00 0.00 0.00 39 1016.3
20260504194510 25 360 0.0 0.0 0.00 0.00 0.00 40 1016.5
20260504193006 25 360 0.0 0.0 0.00 0.00 0.00 42 1016.7
20260504191503 24 360 0.0 0.0 0.00 0.00 0.00 41 1017.0
20260504190100 24 360 0.0 0.0 0.00 0.00 0.00 50 1017.2